Weather reports worldwide

Advertisment
Sete, France (7641): temperature & dewpoint: 09.12.2018 07:00:00 - 15.12.2018 07:00:00 (CET)Sete, France (7641): wind speed & gusts: 09.12.2018 07:00:00 - 15.12.2018 07:00:00 (CET)Sete, France (7641): wind direction: 09.12.2018 07:00:00 - 15.12.2018 07:00:00 (CET)Sete, France (7641): reduced air pressure: 09.12.2018 07:00:00 - 15.12.2018 07:00:00 (CET)Sete, France (7641): visibility: 09.12.2018 07:00:00 - 15.12.2018 07:00:00 (CET)Sete, France (7641): precipitation: 09.12.2018 07:00:00 - 15.12.2018 07:00:00 (CET)
Date & Time tt [°C] td [°C] ff [km/h] ff [kn] fx [km/h] fx [kn] dd ppp [hPa] vv [km] rr [mm]
15.12.2018 07:00:00 - - - - - - - - - -
15.12.2018 06:00:00 2,6 -2,9 9 5 14 8 N 1020,8 - 0,0
15.12.2018 05:00:00 4,5 -4,8 6 3 31 17 NNE 1020,7 - 0,0
15.12.2018 04:00:00 4,5 -4,8 22 12 41 22 NNW 1020,4 20 0,0
15.12.2018 03:00:00 4,4 -2,9 24 13 39 21 NNW 1020,6 - 0,0
15.12.2018 02:00:00 4,5 -2,4 16 9 29 16 NNW 1020,5 - 0,0
15.12.2018 01:00:00 5,3 -2,5 18 10 37 20 NNW 1020,4 - 0,0
15.12.2018 00:00:00 5,5 -2,1 21 11 38 21 NNW 1020,1 - 0,0
14.12.2018 23:00:00 6,1 -1,8 17 9 31 17 NNW 1020,0 - 0,0
14.12.2018 22:00:00 6,9 -1,5 19 10 41 22 NNW 1019,9 - 0,0
14.12.2018 21:00:00 7,4 -1,1 25 14 41 22 NW 1018,8 - 0,0
14.12.2018 20:00:00 6,8 0,7 4 2 27 15 SW 1018,5 - 0,0
14.12.2018 19:00:00 7,7 0,6 14 8 36 19 NW 1018,0 20 0,0
14.12.2018 18:00:00 8,3 0,7 15 8 48 26 NNW 1017,7 - 0,0
14.12.2018 17:00:00 9,1 1,0 24 13 42 23 NNW 1016,7 - 0,0
14.12.2018 16:00:00 9,7 1,1 16 8 32 17 NNW 1016,3 20 0,0
14.12.2018 15:00:00 10,6 2,9 10 5 48 26 NNW 1015,4 - 0,0
14.12.2018 14:00:00 11,5 3,3 9 5 37 20 NW 1015,0 - 0,0
14.12.2018 13:00:00 11,4 5,0 12 7 35 19 NNW 1015,1 20 0,0
14.12.2018 12:00:00 10,9 6,0 11 6 28 15 NNW 1015,3 - 0,0
14.12.2018 11:00:00 9,3 6,4 9 5 29 15 NNW 1015,4 - 0,0
14.12.2018 10:00:00 8,1 5,7 13 7 26 14 WNW 1014,7 20 0,0
14.12.2018 09:00:00 7,4 4,7 16 8 26 14 WNW 1013,8 - 0,0
14.12.2018 08:00:00 7,6 4,4 15 8 23 13 NW 1013,1 - 0,0
14.12.2018 07:00:00 7,8 2,9 10 5 17 9 NW 1012,6 20 0,0
14.12.2018 06:00:00 7,3 3,3 15 8 24 13 NNW 1012,4 - 0,0
14.12.2018 05:00:00 6,8 4,8 16 9 24 13 NNW 1012,2 - 0,2
14.12.2018 04:00:00 6,8 5,3 16 9 24 13 NNW 1012,2 20 0,2
14.12.2018 03:00:00 6,7 5,5 17 9 29 16 N 1012,0 - 0,2
14.12.2018 02:00:00 6,8 5,7 18 10 37 20 N 1011,7 - 0,2
14.12.2018 01:00:00 6,8 5,7 22 12 36 19 N 1011,2 - 0,4
14.12.2018 00:00:00 6,8 5,6 23 12 39 21 N 1010,8 - 0,6
13.12.2018 23:00:00 6,9 4,9 26 14 47 26 NNE 1009,9 - 0,4
13.12.2018 22:00:00 6,7 5,0 31 17 57 31 NNE 1009,0 - 0,0
13.12.2018 21:00:00 6,4 5,0 36 19 58 32 NNE 1008,2 - 0,2
13.12.2018 20:00:00 6,0 5,0 40 22 61 33 NNE 1007,5 - 0,4
13.12.2018 19:00:00 6,3 4,8 37 20 66 36 NNE 1006,8 10 0,0
13.12.2018 18:00:00 6,1 4,9 41 22 67 36 NNE 1006,2 - 0,2
13.12.2018 17:00:00 6,0 5,0 41 22 61 33 NNE 1005,7 - 0,2
13.12.2018 16:00:00 6,1 5,4 39 21 59 32 NNE 1005,7 15 0,8
13.12.2018 15:00:00 6,3 5,4 35 19 54 29 NNE 1005,7 - 0,6
13.12.2018 14:00:00 5,8 4,9 31 17 48 26 NNE 1006,4 15 0,4
13.12.2018 13:00:00 6,1 3,4 29 16 46 25 NNE 1007,3 15 0,0
13.12.2018 12:00:00 6,5 2,4 27 15 42 23 NNE 1008,2 - 0,0
13.12.2018 11:00:00 6,0 1,5 27 15 46 25 NNE 1008,9 - 0,0
13.12.2018 10:00:00 5,6 0,8 26 14 45 24 NNE 1009,1 15 0,0
13.12.2018 09:00:00 4,8 0,0 27 15 44 24 NNE 1010,0 - 0,0
13.12.2018 08:00:00 4,8 -0,8 27 14 41 22 NNE 1010,0 - 0,0
13.12.2018 07:00:00 4,6 -1,6 26 14 42 23 NNE 1010,6 18 0,0
13.12.2018 06:00:00 4,4 -1,8 23 12 36 19 NNE 1011,4 - 0,0
13.12.2018 05:00:00 4,2 -1,8 19 10 28 15 NNE 1012,0 - 0,0
13.12.2018 04:00:00 4,1 -1,7 16 9 24 13 NNE 1012,7 - 0,0
13.12.2018 03:00:00 4,3 -1,5 18 10 30 16 NNE 1013,3 - 0,0
13.12.2018 02:00:00 4,2 -1,0 18 10 28 15 NNE 1013,6 - 0,0
13.12.2018 01:00:00 4,5 0,4 18 10 32 17 NNE 1014,5 - 0,0
13.12.2018 00:00:00 6,8 3,2 14 7 18 10 N 1015,1 - 0,0
12.12.2018 23:00:00 7,6 3,6 10 5 27 15 N 1015,6 - 0,0
12.12.2018 22:00:00 7,7 3,7 18 10 44 24 N 1015,8 - 0,0
12.12.2018 21:00:00 8,3 3,5 25 13 37 20 NNW 1015,9 - 0,0
12.12.2018 20:00:00 8,7 3,1 18 10 27 14 NNW 1016,6 20 0,0
12.12.2018 19:00:00 8,2 4,2 12 7 18 10 NNW 1016,7 20 0,0
12.12.2018 18:00:00 8,9 5,5 11 6 17 9 N 1016,5 - 0,0
12.12.2018 17:00:00 9,3 4,7 10 5 24 13 W 1016,7 - 0,0
12.12.2018 16:00:00 10,2 3,9 11 6 22 12 SW 1017,0 20 0,0
12.12.2018 15:00:00 9,8 3,3 10 5 15 8 SSW 1017,3 - 0,0
12.12.2018 14:00:00 9,6 1,7 4 2 12 7 S 1018,2 - 0,0
12.12.2018 13:00:00 10,1 0,7 5 3 11 6 ESE 1018,5 20 0,0
12.12.2018 12:00:00 9,4 0,0 5 3 13 7 ESE 1019,2 - 0,0
12.12.2018 11:00:00 7,2 0,4 5 3 10 6 NNE 1019,9 - 0,0
12.12.2018 10:00:00 7,0 -1,9 0 0 10 6 N 1020,2 20 0,0
12.12.2018 09:00:00 6,1 -2,5 4 2 16 9 N 1019,9 - 0,0
12.12.2018 08:00:00 6,0 -2,9 8 4 14 8 N 1019,8 - 0,0
12.12.2018 07:00:00 6,5 -3,5 10 5 20 11 N 1019,7 - 0,0
12.12.2018 06:00:00 5,8 -2,6 15 8 24 13 NNW 1019,6 - 0,0
12.12.2018 05:00:00 6,0 -2,4 16 9 29 16 N 1020,1 - 0,0
12.12.2018 04:00:00 6,1 -1,3 19 10 28 15 N 1020,5 20 0,0
12.12.2018 03:00:00 5,8 -0,9 19 11 34 18 N 1020,6 - 0,0
12.12.2018 02:00:00 5,5 -0,4 24 13 37 20 N 1020,6 - 0,0
12.12.2018 01:00:00 6,5 -1,7 21 11 34 18 N 1020,6 - 0,0
12.12.2018 00:00:00 6,9 -1,3 22 12 34 18 NNE 1020,8 - 0,0
11.12.2018 23:00:00 7,2 -1,0 16 9 29 16 NNE 1020,7 - 0,0
11.12.2018 22:00:00 7,8 -0,9 14 7 31 17 NNE 1020,7 - 0,0
11.12.2018 21:00:00 8,6 -0,7 14 8 27 14 NE 1020,6 - 0,0
11.12.2018 20:00:00 9,2 0,4 8 5 18 10 NNE 1020,6 - 0,0
11.12.2018 19:00:00 10,4 0,7 9 5 17 9 NNE 1020,2 20 0,0
11.12.2018 18:00:00 10,6 -0,3 6 3 10 5 NNW 1020,0 - 0,0
11.12.2018 17:00:00 11,4 0,2 5 3 9 5 W 1019,5 - 0,0
11.12.2018 16:00:00 11,9 -1,0 6 4 16 9 WNW 1019,6 25 0,0
11.12.2018 15:00:00 12,2 -0,7 8 5 22 12 NNW 1019,8 - 0,0
11.12.2018 14:00:00 12,2 0,0 13 7 32 18 WNW 1020,5 - 0,0
11.12.2018 13:00:00 12,1 -0,1 8 4 26 14 NNW 1021,3 25 0,0
11.12.2018 12:00:00 10,8 1,1 10 6 24 13 NNW 1022,2 - 0,0
11.12.2018 11:00:00 9,8 -0,1 11 6 19 10 NW 1023,0 - 0,0
11.12.2018 10:00:00 9,8 -1,0 9 5 21 11 NW 1023,1 25 0,0
11.12.2018 09:00:00 8,5 -0,8 17 9 29 16 WNW 1023,1 - 0,0
11.12.2018 08:00:00 8,2 -0,6 14 8 36 19 NW 1023,3 - 0,0
11.12.2018 07:00:00 7,4 0,1 28 15 39 21 NW 1023,2 20 0,0
11.12.2018 06:00:00 7,5 0,7 24 13 35 19 NW 1023,6 - 0,0
11.12.2018 05:00:00 7,5 1,1 23 13 36 19 NNW 1024,1 - 0,0
11.12.2018 04:00:00 7,9 1,1 22 12 34 18 NNW 1024,6 20 0,0
11.12.2018 03:00:00 8,4 1,1 22 12 35 19 NNW 1025,1 - 0,0
11.12.2018 02:00:00 8,5 1,4 15 8 29 16 NW 1025,4 - 0,0
11.12.2018 01:00:00 8,9 1,5 15 8 32 17 NW 1025,5 - 0,0
11.12.2018 00:00:00 9,0 1,9 16 9 31 17 NW 1026,0 - 0,0
10.12.2018 23:00:00 9,2 2,7 11 6 36 19 WNW 1026,5 - 0,0
10.12.2018 22:00:00 9,5 2,6 16 9 40 21 NW 1026,8 - 0,0
10.12.2018 21:00:00 9,7 2,5 21 11 41 22 NNW 1027,2 - 0,0
10.12.2018 20:00:00 9,8 2,2 17 9 32 18 NW 1027,4 - 0,0
10.12.2018 19:00:00 9,9 2,5 13 7 26 14 WNW 1027,3 20 0,0
10.12.2018 18:00:00 10,4 2,0 8 4 29 16 NW 1027,0 - 0,0
10.12.2018 17:00:00 11,3 1,8 11 6 47 25 NNW 1027,0 - 0,0
10.12.2018 16:00:00 12,2 1,8 21 12 40 21 NW 1027,1 20 0,0
10.12.2018 15:00:00 12,4 1,7 11 6 41 22 NNW 1027,8 - 0,0
10.12.2018 14:00:00 12,8 1,1 14 7 46 25 NNW 1028,0 - 0,0
10.12.2018 13:00:00 12,8 1,5 25 14 52 28 NW 1028,1 20 0,0
10.12.2018 12:00:00 12,6 2,4 16 9 53 29 NW 1028,9 - 0,0
10.12.2018 11:00:00 11,8 2,8 12 7 42 23 NW 1029,5 - 0,0
10.12.2018 10:00:00 11,6 3,6 21 11 45 24 NW 1029,5 20 0,0
10.12.2018 09:00:00 11,2 3,5 16 9 31 17 NW 1029,3 - 0,0
10.12.2018 08:00:00 10,7 3,0 10 5 28 15 NW 1028,7 - 0,0
10.12.2018 07:00:00 11,1 2,9 10 5 32 18 NW 1028,2 20 0,0
10.12.2018 06:00:00 11,1 3,4 10 5 29 16 NW 1027,9 - 0,0
10.12.2018 05:00:00 10,8 2,9 12 7 35 19 NW 1027,8 - 0,0
10.12.2018 04:00:00 11,1 3,1 18 10 40 22 NNW 1027,2 - 0,0
10.12.2018 03:00:00 11,8 3,0 19 11 41 22 NW 1027,9 - 0,0
10.12.2018 02:00:00 11,9 3,9 15 8 50 27 WNW 1027,7 - 0,0
10.12.2018 01:00:00 11,8 2,5 16 9 40 22 WNW 1027,2 - 0,0
10.12.2018 00:00:00 12,1 4,1 11 6 35 19 WNW 1028,0 - 0,0
09.12.2018 23:00:00 12,2 4,7 10 6 41 22 NW 1027,0 - 0,0
09.12.2018 22:00:00 12,5 3,7 10 5 47 25 WSW 1026,4 - 0,0
09.12.2018 21:00:00 12,3 4,0 6 4 43 23 SE 1025,2 - 0,0
09.12.2018 20:00:00 12,4 3,9 13 7 44 24 NW 1024,2 - 0,0
09.12.2018 19:00:00 12,7 4,9 21 12 72 39 NW 1023,5 18 0,0
09.12.2018 18:00:00 12,9 5,6 21 11 53 28 NW 1022,8 - 0,0
09.12.2018 17:00:00 13,3 5,2 16 9 55 30 NW 1022,3 - 0,0
09.12.2018 16:00:00 14,0 6,4 16 9 48 26 NNW 1022,1 18 0,0
09.12.2018 15:00:00 14,7 6,3 13 7 38 21 NW 1020,8 - 0,0
09.12.2018 14:00:00 15,5 6,5 14 8 41 22 NW 1020,9 - 0,0
09.12.2018 13:00:00 15,6 6,0 16 9 44 24 W 1020,8 18 0,0
09.12.2018 12:00:00 15,9 5,5 18 10 47 26 W 1020,9 - 0,0
09.12.2018 11:00:00 15,4 5,6 16 9 39 21 W 1021,3 - 0,0
09.12.2018 10:00:00 15,4 5,3 13 7 35 19 W 1021,3 20 0,0
09.12.2018 09:00:00 14,3 7,1 8 5 33 18 SW 1021,4 - 0,0
09.12.2018 08:00:00 13,9 6,7 11 6 36 20 WSW 1021,3 - 0,0
09.12.2018 07:00:00 14,2 6,3 16 9 58 32 WSW 1021,1 20 0,0

tt = temperature
td = dewpoint
ff = wind speed
fx = gusts
dd = wind direction
ppp = reduced air pressure
vv = visibility
rr = precipitation

Next stations